sat.trackr.live / text

‹ back to catalog

STARLINK-3799

NORAD 52382 · 2022-045BD

PAYLOAD ACTIVE UNKNOWN

§ Identity

Operator
Country
US
Launch date
2022-04-29
Launch site
AFETR
Launch vehicle
Mass (kg)
RCS (m²)

Purposes: comms

External: N2YO · Heavens-Above · Gunter

§ Orbital elements

Epoch: 2026-05-25T04:23:07.812384Z

Period
94.42 min
Inclination
53.2113°
Eccentricity
0.0000975
Mean motion
15.25042587 rev/d
Perigee alt
490.0 km
Apogee alt
491.3 km
Semi-major
6,868.8 km
B*
7.0376e-3
RAAN
202.3779°
Arg perigee
100.3542°
Mean anomaly
259.7567°
Rev number
22,752

§ Raw data

STARLINK-37991 52382U 22045BD  26145.18272931  .00182263  00000+0  70376-2 0  99902 52382  53.2113 202.3779 0000975 100.3542 259.7567 15.25042587227521

JSON: /api/v1/satellites/52382 · /tle

For live sub-satellite position, see the globe view (requires WebGL).

§ Visibility from observer

Set your observer location to see the next 7 days of passes ≥ 10°. The values pass through the URL so the page stays shareable.

No JS? Fill the form by hand. The geolocation button needs JavaScript.